Weather History for EGPF - December, 2013

Change the Weather History Date:

Sunday, December 8, 2013

  Actual Average Record
Temperature  
Mean Temperature 50 °F -  
Max Temperature 53 °F 43 °F 53 °F (1997)
Min Temperature 48 °F 33 °F 8 °F (2010)
Degree Days  
Heating Degree Days 14    
Moisture  
Dew Point 50 °F    
Average Humidity 97    
Maximum Humidity 100    
Minimum Humidity 87    
Precipitation  
Precipitation 0.00 in - - ()
Sea Level Pressure  
Sea Level Pressure 29.89 in    
Wind  
Wind Speed 20 mph ()    
Max Wind Speed 26 mph    
Max Gust Speed 37 mph    
Visibility 5.0 miles    
Events Rain    
Averages and records for this station are not official NWS values.
T = Trace of Precipitation, MM = Missing Value Source: Averaged Metar Reports

Daily Weather History Graph

Daily Weather History Graph

Search for Another Location

Airport or City:

Trip Planner

Search our weather history database for the weather conditions in past years. The results will help you decide how hot, cold, wet, or windy it might be!

Date:

Astronomy

Dec. 08, 2013 Rise Set
Actual Time 8:34 AM GMT 3:44 PM GMT
Civil Twilight 7:48 AM GMT 4:31 PM GMT
Nautical Twilight 6:59 AM GMT 5:19 PM GMT
Astronomical Twilight 6:14 AM GMT 6:04 PM GMT
Moon 11:56 AM GMT (12/8) 11:13 PM GMT (12/8)
Length of Visible Light 8h 43m
Length of Day
7h 10m
Waxing Crescent, 37% of the Moon is Illuminated
Dec 8
Waxing Crescent
Dec 9
First Quarter
Dec 17
Full
Dec 25
Last Quarter
Jan 1
New

Hourly Weather History & Observations

Time (GMT) Temp. Dew Point Humidity Pressure Visibility Wind Dir Wind Speed Gust Speed Precip Events Conditions
12:20 AM 48.2 °F 46.4 °F 93% 29.95 in 6.2 mi WSW 19.6 mph - N/A   Overcast
12:50 AM 48.2 °F 46.4 °F 93% 29.95 in 6.2 mi WSW 17.3 mph - N/A   Mostly Cloudy
1:20 AM 50.0 °F 46.4 °F 87% 29.95 in 6.2 mi WSW 18.4 mph - N/A   Mostly Cloudy
1:50 AM 48.2 °F 44.6 °F 87% 29.92 in 6.2 mi WSW 16.1 mph - N/A   Mostly Cloudy
2:20 AM 48.2 °F 44.6 °F 87% 29.92 in 6.2 mi WSW 20.7 mph - N/A   Mostly Cloudy
2:50 AM 48.2 °F 44.6 °F 87% 29.89 in 6.2 mi WSW 21.9 mph - N/A   Mostly Cloudy
3:20 AM 48.2 °F 46.4 °F 93% 29.89 in 6.2 mi SW 25.3 mph - N/A   Mostly Cloudy
3:50 AM 48.2 °F 46.4 °F 93% 29.89 in 6.2 mi SW 24.2 mph - N/A   Mostly Cloudy
4:20 AM 48.2 °F 46.4 °F 93% 29.86 in 6.2 mi SW 24.2 mph - N/A Rain Light Rain
4:50 AM 48.2 °F 46.4 °F 93% 29.86 in 5.0 mi SW 26.5 mph - N/A Rain Light Rain
5:20 AM 48.2 °F 48.2 °F 100% 29.86 in 5.0 mi WSW 26.5 mph - N/A Rain Light Rain
5:50 AM 48.2 °F 48.2 °F 100% 29.86 in 3.7 mi WSW 20.7 mph - N/A Rain Light Rain
6:20 AM 48.2 °F 48.2 °F 100% 29.86 in 4.3 mi WSW 18.4 mph - N/A Rain Light Rain
6:50 AM 50.0 °F 50.0 °F 100% 29.86 in 4.3 mi WSW 20.7 mph - N/A Rain Light Rain
7:20 AM 50.0 °F 50.0 °F 100% 29.86 in 6.2 mi WSW 25.3 mph - N/A Rain Light Rain
7:50 AM 51.8 °F 50.0 °F 94% 29.89 in 6.2 mi West 21.9 mph - N/A   Overcast
8:20 AM 51.8 °F 50.0 °F 94% 29.89 in 6.2 mi WSW 21.9 mph - N/A   Mostly Cloudy
8:50 AM 51.8 °F 50.0 °F 94% 29.89 in 6.2 mi WSW 20.7 mph - N/A   Mostly Cloudy
9:20 AM 51.8 °F 50.0 °F 94% 29.89 in 6.2 mi WSW 21.9 mph - N/A   Mostly Cloudy
9:50 AM 51.8 °F 48.2 °F 88% 29.89 in 6.2 mi WSW 18.4 mph - N/A   Mostly Cloudy
10:20 AM 50.0 °F 50.0 °F 100% 29.89 in 6.2 mi SW 23.0 mph - N/A Rain Light Rain
10:50 AM 50.0 °F 50.0 °F 100% 29.89 in 2.8 mi SW 19.6 mph - N/A Rain Light Rain
11:20 AM 50.0 °F 50.0 °F 100% 29.89 in 2.8 mi SW 23.0 mph - N/A Rain Light Rain
11:50 AM 50.0 °F 50.0 °F 100% 29.86 in 3.1 mi SW 23.0 mph - N/A Rain Light Rain
12:20 PM 50.0 °F 50.0 °F 100% 29.86 in 3.1 mi SW 24.2 mph - N/A Rain Light Rain
12:50 PM 50.0 °F 50.0 °F 100% 29.86 in - SW 24.2 mph - N/A Rain Light Rain
1:20 PM 50.0 °F 50.0 °F 100% 29.86 in 1.6 mi SW 24.2 mph - N/A Rain Rain
1:50 PM 50.0 °F 50.0 °F 100% 29.86 in 2.5 mi SW 23.0 mph - N/A Rain Rain
2:20 PM 50.0 °F 50.0 °F 100% 29.86 in 4.3 mi WSW 20.7 mph - N/A Rain Light Rain
2:50 PM 51.8 °F 51.8 °F 100% 29.86 in 3.1 mi WSW 20.7 mph - N/A Rain Rain
3:20 PM 51.8 °F 51.8 °F 100% 29.86 in 6.2 mi WSW 16.1 mph - N/A Rain Light Rain
3:50 PM 51.8 °F 51.8 °F 100% 29.86 in 6.2 mi SW 15.0 mph - N/A Rain Light Rain
4:20 PM 51.8 °F 51.8 °F 100% 29.86 in 4.3 mi SW 16.1 mph - N/A Rain Light Rain
4:50 PM 51.8 °F 51.8 °F 100% 29.86 in 5.0 mi SW 18.4 mph - N/A Rain Light Rain
5:20 PM 51.8 °F 51.8 °F 100% 29.86 in 3.7 mi SW 21.9 mph - N/A Rain Rain
5:50 PM 51.8 °F 51.8 °F 100% 29.86 in 3.1 mi SW 20.7 mph - N/A Rain Rain
6:20 PM 51.8 °F 51.8 °F 100% 29.86 in 3.1 mi WSW 19.6 mph 31.1 mph N/A Rain Rain
6:50 PM 51.8 °F 51.8 °F 100% 29.89 in 3.1 mi WSW 24.2 mph - N/A Rain Rain
7:20 PM 51.8 °F 51.8 °F 100% 29.89 in 4.3 mi WSW 23.0 mph - N/A Rain Light Rain
7:50 PM 51.8 °F 51.8 °F 100% 29.89 in 3.7 mi WSW 23.0 mph - N/A Rain Light Rain
8:20 PM 51.8 °F 51.8 °F 100% 29.89 in 4.3 mi WSW 24.2 mph 35.7 mph N/A Rain Light Rain
8:50 PM 51.8 °F 51.8 °F 100% 29.92 in 6.2 mi WSW 25.3 mph - N/A Rain Light Rain
9:20 PM 53.6 °F 51.8 °F 94% 29.92 in 6.2 mi WSW 23.0 mph 35.7 mph N/A Rain Light Rain
9:50 PM 53.6 °F 51.8 °F 94% 29.92 in 6.2 mi WSW 23.0 mph 36.8 mph N/A   Light Drizzle
10:20 PM 53.6 °F 51.8 °F 94% 29.92 in 6.2 mi WSW 23.0 mph 34.5 mph N/A   Overcast
10:50 PM 53.6 °F 51.8 °F 94% 29.92 in 6.2 mi WSW 26.5 mph - N/A   Overcast
11:20 PM 53.6 °F 51.8 °F 94% 29.92 in 6.2 mi West 25.3 mph 36.8 mph N/A   Mostly Cloudy
11:50 PM 53.6 °F 51.8 °F 94% 29.92 in 6.2 mi West 26.5 mph - N/A   Overcast